AIC177 VIDP-VABB

Flight info

Callsign AIC177
Flight time N/A
Altitude 38000
Route DUDUM6H DUDUM Q2 AKTIV IGBAN2A
Aircraft B77W/H-SDE1E2E3FGHIJ2J3J4J5M1RWXY/LB1D1

Departure

Time 2026-05-05 21:18
Airport Indira Gandhi International Airport (VIDP)

Arrival

Time N/A
Airport Chhatrapati Shivaji Maharaj International Airport (VABB)
Time Latitude Longitude Altitude Speed Heading
2026-05-05 21:10 28.55057 77.08348 748 ft 0 kts 232°
2026-05-05 21:10 28.55051 77.08340 748 ft 8 kts 232°
2026-05-05 21:10 28.55028 77.08278 748 ft 8 kts 254°
2026-05-05 21:11 28.55030 77.08195 747 ft 20 kts 283°
2026-05-05 21:11 28.55070 77.08021 746 ft 24 kts 284°
2026-05-05 21:11 28.55113 77.07835 745 ft 24 kts 284°
2026-05-05 21:11 28.55098 77.07745 743 ft 3 kts 194°
2026-05-05 21:12 28.55073 77.07706 742 ft 17 kts 240°
2026-05-05 21:12 28.55037 77.07626 742 ft 16 kts 243°
2026-05-05 21:12 28.55012 77.07580 741 ft 5 kts 220°
2026-05-05 21:12 28.54912 77.07555 742 ft 17 kts 192°
2026-05-05 21:13 28.54806 77.07500 743 ft 17 kts 214°
2026-05-05 21:13 28.54721 77.07408 742 ft 18 kts 258°
2026-05-05 21:13 28.54739 77.07275 741 ft 14 kts 283°
2026-05-05 21:13 28.54755 77.07198 738 ft 11 kts 283°
2026-05-05 21:14 28.54775 77.07107 740 ft 13 kts 283°
2026-05-05 21:14 28.54796 77.07004 739 ft 14 kts 283°
2026-05-05 21:14 28.54804 77.06962 738 ft 0 kts 282°
2026-05-05 21:16 28.54805 77.06959 738 ft 2 kts 281°
2026-05-05 21:16 28.54760 77.06881 738 ft 15 kts 202°
2026-05-05 21:16 28.54659 77.06889 739 ft 15 kts 145°
2026-05-05 21:16 28.54633 77.06942 740 ft 0 kts 103°
2026-05-05 21:17 28.54633 77.06943 740 ft 1 kts 103°
2026-05-05 21:17 28.54622 77.06999 741 ft 23 kts 103°
2026-05-05 21:17 28.54506 77.07569 742 ft 136 kts 104°
2026-05-05 21:17 28.54186 77.09053 767 ft 238 kts 104°
2026-05-05 21:18 28.53738 77.10833 2432 ft 190 kts 111°
2026-05-05 21:18 28.53229 77.12302 4215 ft 228 kts 110°
2026-05-05 21:18 28.52685 77.14057 5265 ft 252 kts 115°
2026-05-05 21:18 28.51416 77.15527 5988 ft 268 kts 154°
2026-05-05 21:19 28.46787 77.15176 7125 ft 294 kts 205°
2026-05-05 21:19 28.28718 77.07858 9470 ft 393 kts 211°
2026-05-05 21:19 28.14266 76.90028 17034 ft 412 kts 231°
2026-05-05 21:19 27.97634 76.71765 24811 ft 421 kts 227°
2026-05-05 21:20 27.80624 76.52987 30188 ft 449 kts 229°
2026-05-05 21:20 27.58715 76.36377 34448 ft 464 kts 221°
2026-05-05 21:20 27.37233 76.21143 36184 ft 463 kts 218°
2026-05-05 21:20 27.15184 76.05966 37096 ft 459 kts 219°
2026-05-05 21:21 26.94856 75.92126 37591 ft 453 kts 220°
2026-05-05 21:21 26.71968 75.78808 37953 ft 485 kts 208°
2026-05-05 21:21 26.22377 75.58356 37782 ft 465 kts 209°
2026-05-05 21:22 25.73901 75.38124 37878 ft 473 kts 208°
2026-05-05 21:22 25.23668 75.17609 37858 ft 480 kts 208°
2026-05-05 21:23 24.75572 74.98085 37779 ft 463 kts 207°
2026-05-05 21:23 24.26556 74.78303 37943 ft 477 kts 207°
2026-05-05 21:24 23.76613 74.58282 37828 ft 481 kts 206°
2026-05-05 21:24 23.26751 74.38471 37835 ft 473 kts 206°
2026-05-05 21:25 22.76748 74.18754 37936 ft 490 kts 206°
2026-05-05 21:25 22.27745 73.99566 36028 ft 450 kts 206°
2026-05-05 21:26 22.05461 73.90880 34035 ft 428 kts 205°
2026-05-05 21:26 21.83509 73.82351 31877 ft 411 kts 205°
2026-05-05 21:26 21.62381 73.74170 29917 ft 397 kts 206°
2026-05-05 21:26 21.42019 73.66307 28019 ft 381 kts 205°
2026-05-05 21:27 21.22267 73.58701 26276 ft 370 kts 205°
2026-05-05 21:27 21.02920 73.51876 24871 ft 360 kts 202°
2026-05-05 21:27 20.84068 73.45600 23461 ft 353 kts 202°
2026-05-05 21:27 20.66672 73.39764 20323 ft 314 kts 201°
2026-05-05 21:28 20.50144 73.34229 15851 ft 303 kts 199°
2026-05-05 21:28 20.34463 73.29009 11203 ft 295 kts 198°
2026-05-05 21:28 20.19110 73.23990 7012 ft 284 kts 196°
2026-05-05 21:28 20.03349 73.19106 4309 ft 308 kts 193°
2026-05-05 21:29 19.87590 73.17980 3469 ft 250 kts 185°
2026-05-05 21:29 19.75419 73.16991 3326 ft 200 kts 186°
2026-05-05 21:29 19.61527 73.15809 4949 ft 264 kts 185°
2026-05-05 21:29 19.51908 73.15001 4912 ft 271 kts 185°
2026-05-05 21:30 19.46267 73.14706 4837 ft 272 kts 197°
2026-05-05 21:30 19.41820 73.12833 4831 ft 267 kts 174°
2026-05-05 21:30 19.36871 73.18397 4931 ft 270 kts 121°
2026-05-05 21:30 19.31851 73.24254 4226 ft 272 kts 136°
2026-05-05 21:31 19.26379 73.29475 3853 ft 252 kts 139°
2026-05-05 21:31 19.20141 73.33483 3625 ft 211 kts 164°
2026-05-05 21:31 19.12149 73.33340 3661 ft 203 kts 212°
2026-05-05 21:31 19.09741 73.30814 3863 ft 212 kts 252°
2026-05-05 21:32 19.09534 73.29248 3886 ft 216 kts 269°
2026-05-05 21:32 19.09481 73.27189 3873 ft 215 kts 269°
2026-05-05 21:32 19.09451 73.25601 3899 ft 210 kts 269°
2026-05-05 21:32 19.09375 73.20730 3758 ft 192 kts 270°
2026-05-05 21:33 19.09228 73.10744 3870 ft 184 kts 270°
2026-05-05 21:33 19.09169 73.06681 3534 ft 203 kts 270°
2026-05-05 21:33 19.09155 73.05686 3420 ft 203 kts 269°
2026-05-05 21:33 19.09133 73.04200 3097 ft 200 kts 269°
2026-05-05 21:34 19.09105 73.02332 2718 ft 181 kts 269°
2026-05-05 21:34 19.09086 73.01082 2494 ft 160 kts 269°
2026-05-05 21:34 19.09075 73.00324 2353 ft 154 kts 269°
2026-05-05 21:34 19.09059 72.99221 2184 ft 158 kts 269°
2026-05-05 21:35 19.09042 72.98075 1985 ft 152 kts 269°
2026-05-05 21:35 19.09025 72.96970 1778 ft 148 kts 269°
2026-05-05 21:35 19.09009 72.95898 1578 ft 146 kts 269°
2026-05-05 21:35 19.08993 72.94836 1386 ft 145 kts 269°
2026-05-05 21:36 19.08977 72.93773 1191 ft 144 kts 269°
2026-05-05 21:36 19.08962 72.92727 1002 ft 143 kts 269°
2026-05-05 21:36 19.08946 72.91674 814 ft 143 kts 269°
2026-05-05 21:36 19.08935 72.90621 643 ft 142 kts 270°
2026-05-05 21:37 19.08935 72.89570 463 ft 144 kts 268°
2026-05-05 21:37 19.08891 72.88516 237 ft 142 kts 269°
2026-05-05 21:37 19.08874 72.87477 91 ft 143 kts 268°
2026-05-05 21:37 19.08850 72.86504 49 ft 122 kts 269°
2026-05-05 21:38 19.08865 72.85891 50 ft 64 kts 262°
2026-05-05 21:38 19.09292 73.15124 3896 ft 188 kts 270°
2026-05-05 21:38 19.09175 73.07070 3809 ft 197 kts 270°
2026-05-05 21:38 19.08938 72.90025 565 ft 143 kts 270°
2026-05-05 21:39 19.08891 72.88536 240 ft 142 kts 269°
2026-05-05 21:39 19.08873 72.87457 89 ft 143 kts 268°
2026-05-05 21:39 19.09134 73.04290 3054 ft 200 kts 269°
2026-05-05 21:39 19.09117 73.03172 2886 ft 168 kts 269°
2026-05-05 21:40 19.09100 73.02004 2675 ft 171 kts 269°
2026-05-05 21:40 19.09083 73.00838 2429 ft 152 kts 269°
2026-05-05 21:40 19.09067 72.99753 2126 ft 144 kts 269°
2026-05-05 21:40 19.09051 72.98701 1843 ft 144 kts 269°
2026-05-05 21:41 19.09035 72.97650 1579 ft 145 kts 269°
2026-05-05 21:41 19.09019 72.96588 1306 ft 144 kts 269°
2026-05-05 21:41 19.09004 72.95532 1029 ft 143 kts 269°
2026-05-05 21:41 19.08988 72.94487 756 ft 141 kts 269°
2026-05-05 21:42 19.08973 72.93446 482 ft 149 kts 269°
2026-05-05 21:42 19.08956 72.92323 245 ft 151 kts 269°
2026-05-05 21:42 19.09084 73.00968 2470 ft 153 kts 269°
2026-05-05 21:42 19.09069 72.99899 2153 ft 139 kts 269°
2026-05-05 21:43 19.09055 72.98936 2127 ft 131 kts 269°
2026-05-05 21:43 19.09039 72.97924 1936 ft 139 kts 269°
2026-05-05 21:43 19.09024 72.96875 1767 ft 143 kts 269°
2026-05-05 21:43 19.09008 72.95824 1571 ft 142 kts 269°
2026-05-05 21:44 19.08993 72.94789 1383 ft 141 kts 269°
2026-05-05 21:44 19.08977 72.93755 1181 ft 140 kts 269°